Franklin, VA

7:39 AM EDT on October 17, 2017 (GMT -0400)
Franklin Municipal-Rose

Weather History for KFKN - September, 2012

Change the Weather History Date:

Thursday, September 13, 2012

  Actual Average (KSFQ) Record (KSFQ)
Temperature  
Mean Temperature 68 °F -  
Max Temperature 82 °F 82 °F 96 °F (1952)
Min Temperature 53 °F 61 °F 46 °F (1958)
Cooling Degree Days 2    
Growing Degree Days 18 (Base 50)    
Moisture  
Dew Point 63 °F    
Average Humidity 87    
Maximum Humidity 100    
Minimum Humidity 58    
Precipitation  
Precipitation 0.00 in - - ()
Sea Level Pressure  
Sea Level Pressure 30.32 in    
Wind  
Wind Speed 2 mph (NE)    
Max Wind Speed 10 mph    
Max Gust Speed -    
Visibility 10 miles    
Events      
Averages and records for this station are not official NWS values.
T = Trace of Precipitation, MM = Missing Value Source: NWS Daily Summary

Daily Weather History Graph

Daily Weather History Graph

Search for Another Location

Airport or City:

Trip Planner

Search our weather history database for the weather conditions in past years. The results will help you decide how hot, cold, wet, or windy it might be!

Date:

Astronomy

Sep. 13, 2012 Rise Set
Actual Time 6:48 AM EDT 7:17 PM EDT
Civil Twilight 6:22 AM EDT 7:43 PM EDT
Nautical Twilight 5:52 AM EDT 8:13 PM EDT
Astronomical Twilight 5:20 AM EDT 8:44 PM EDT
Moon 4:08 AM EDT (9/13) 5:36 PM EDT (9/13)
Length of Visible Light 13h 20m
Length of Day
12h 28m
Waning Crescent, 7% of the Moon is Illuminated
Sep 13
Waning Crescent
Sep 15
New
Sep 22
First Quarter
Sep 29
Full
Oct 8
Last Quarter

Hourly Weather History & Observations

Time (EDT) Temp. Heat Index Dew Point Humidity Pressure Visibility Wind Dir Wind Speed Gust Speed Precip Events Conditions
12:15 AM 57.2 °F - 57.2 °F 100% 30.34 in 10.0 mi Calm Calm - N/A   Unknown
12:35 AM 55.4 °F - 55.4 °F 100% 30.34 in - Calm Calm - N/A   Unknown
12:55 AM 55.4 °F - 55.4 °F 100% 30.34 in 10.0 mi Calm Calm - N/A   Unknown
1:15 AM 55.4 °F - 55.4 °F 100% 30.34 in 10.0 mi Calm Calm - N/A   Unknown
1:35 AM 55.4 °F - 55.4 °F 100% 30.33 in - Calm Calm - N/A   Unknown
1:55 AM 55.4 °F - 55.4 °F 100% 30.34 in 10.0 mi Calm Calm - N/A   Unknown
2:15 AM 53.6 °F - 53.6 °F 100% 30.34 in 10.0 mi Calm Calm - N/A   Unknown
2:35 AM 55.4 °F - 55.4 °F 100% 30.34 in - Calm Calm - N/A   Unknown
2:55 AM 53.6 °F - 53.6 °F 100% 30.33 in 10.0 mi Calm Calm - N/A   Unknown
3:15 AM 53.6 °F - 53.6 °F 100% 30.33 in 10.0 mi Calm Calm - N/A   Unknown
3:35 AM 53.6 °F - 53.6 °F 100% 30.33 in - Calm Calm - N/A   Unknown
3:55 AM 55.4 °F - 55.4 °F 100% 30.32 in 10.0 mi Calm Calm - N/A   Unknown
4:35 AM 53.6 °F - 53.6 °F 100% 30.32 in - Calm Calm - N/A   Unknown
4:55 AM 53.6 °F - 53.6 °F 100% 30.33 in 10.0 mi Calm Calm - N/A   Unknown
5:15 AM 53.6 °F - 53.6 °F 100% 30.33 in 10.0 mi Calm Calm - N/A   Unknown
5:35 AM 53.6 °F - 53.6 °F 100% 30.33 in - Calm Calm - N/A   Unknown
5:55 AM 53.6 °F - 53.6 °F 100% 30.33 in 10.0 mi Calm Calm - N/A   Unknown
6:15 AM 53.6 °F - 53.6 °F 100% 30.34 in 10.0 mi Calm Calm - N/A   Unknown
6:35 AM 53.6 °F - 53.6 °F 100% 30.34 in - Calm Calm - N/A   Unknown
6:55 AM 53.6 °F - 53.6 °F 100% 30.35 in 10.0 mi Calm Calm - N/A   Unknown
7:15 AM 53.6 °F - 53.6 °F 100% 30.35 in 10.0 mi Calm Calm - N/A   Unknown
7:35 AM 55.4 °F - 55.4 °F 100% 30.35 in - Calm Calm - N/A   Unknown
7:55 AM 57.2 °F - 57.2 °F 100% 30.35 in 10.0 mi Calm Calm - N/A   Unknown
8:15 AM 60.8 °F - 60.8 °F 100% 30.35 in 10.0 mi Calm Calm - N/A   Unknown
8:35 AM 62.6 °F - 62.6 °F 100% 30.35 in - Calm Calm - N/A   Unknown
8:55 AM 64.4 °F - 64.4 °F 100% 30.35 in 10.0 mi North 3.5 mph - N/A   Unknown
9:15 AM 68.0 °F - 66.2 °F 94% 30.35 in 10.0 mi North 4.6 mph - N/A   Unknown
9:35 AM 69.8 °F - 66.2 °F 88% 30.36 in - NNE 3.5 mph - N/A   Unknown
9:55 AM 71.6 °F - 66.2 °F 83% 30.36 in 10.0 mi NNE 5.8 mph - N/A   Unknown
10:15 AM 73.4 °F - 66.2 °F 78% 30.36 in 10.0 mi Calm Calm - N/A   Unknown
10:35 AM 75.2 °F - 68.0 °F 78% 30.37 in - NNE 4.6 mph - N/A   Unknown
10:55 AM 75.2 °F - 68.0 °F 78% 30.36 in 10.0 mi NE 6.9 mph - N/A   Unknown
11:15 AM 75.2 °F - 68.0 °F 78% 30.36 in 10.0 mi ENE 4.6 mph - N/A   Unknown
11:35 AM 75.2 °F - 66.2 °F 73% 30.36 in - NNE 5.8 mph - N/A   Unknown
11:55 AM 78.8 °F - 68.0 °F 69% 30.36 in 10.0 mi NE 5.8 mph - N/A   Unknown
12:15 PM 80.6 °F 83.2 °F 68.0 °F 65% 30.35 in 10.0 mi ENE 4.6 mph - N/A   Unknown
12:35 PM 78.8 °F - 66.2 °F 65% 30.35 in - ENE 3.5 mph - N/A   Unknown
12:55 PM 80.6 °F 82.7 °F 66.2 °F 61% 30.34 in 10.0 mi East 3.5 mph - N/A   Unknown
1:15 PM 80.6 °F 82.7 °F 66.2 °F 61% 30.33 in 10.0 mi North 3.5 mph - N/A   Unknown
1:35 PM 80.6 °F 82.7 °F 66.2 °F 61% 30.32 in - Calm Calm - N/A   Unknown
1:55 PM 82.4 °F 85.4 °F 68.0 °F 62% 30.32 in 10.0 mi East 4.6 mph - N/A   Unknown
2:15 PM 82.4 °F 85.4 °F 68.0 °F 62% 30.30 in 10.0 mi ESE 4.6 mph - N/A   Unknown
2:35 PM 82.4 °F 84.6 °F 66.2 °F 58% 30.30 in - ENE 6.9 mph - N/A   Unknown
2:55 PM 82.4 °F 85.4 °F 68.0 °F 62% 30.29 in 10.0 mi ENE 6.9 mph - N/A   Unknown
3:15 PM 82.4 °F 86.3 °F 69.8 °F 66% 30.29 in 10.0 mi ENE 9.2 mph - N/A   Unknown
3:35 PM 80.6 °F 83.2 °F 68.0 °F 65% 30.28 in - East 8.1 mph - N/A   Unknown
3:55 PM 80.6 °F 83.9 °F 69.8 °F 70% 30.28 in 10.0 mi East 6.9 mph - N/A   Unknown
4:15 PM 82.4 °F 85.4 °F 68.0 °F 62% 30.27 in 10.0 mi ENE 9.2 mph - N/A   Unknown
4:35 PM 82.4 °F 85.4 °F 68.0 °F 62% 30.27 in - ENE 8.1 mph - N/A   Unknown
4:55 PM 80.6 °F 83.2 °F 68.0 °F 65% 30.27 in 10.0 mi ENE 6.9 mph - N/A   Unknown
5:15 PM 80.6 °F 83.2 °F 68.0 °F 65% 30.27 in 10.0 mi ENE 9.2 mph - N/A   Unknown
5:35 PM 80.6 °F 83.9 °F 69.8 °F 70% 30.27 in - East 10.4 mph - N/A   Unknown
5:55 PM 78.8 °F - 68.0 °F 69% 30.27 in 10.0 mi ENE 9.2 mph - N/A   Unknown
6:15 PM 78.8 °F - 68.0 °F 69% 30.27 in 10.0 mi ENE 9.2 mph - N/A   Unknown
6:35 PM 77.0 °F - 69.8 °F 78% 30.27 in - ENE 4.6 mph - N/A   Unknown
6:55 PM 73.4 °F - 69.8 °F 88% 30.27 in 10.0 mi NE 4.6 mph - N/A   Unknown
7:15 PM 73.4 °F - 69.8 °F 88% 30.27 in 10.0 mi Calm Calm - N/A   Unknown
7:35 PM 71.6 °F - 69.8 °F 94% 30.27 in - Calm Calm - N/A   Unknown
7:55 PM 71.6 °F - 69.8 °F 94% 30.27 in 10.0 mi Calm Calm - N/A   Unknown
8:15 PM 69.8 °F - 69.8 °F 100% 30.28 in 10.0 mi Calm Calm - N/A   Unknown
8:35 PM 69.8 °F - 69.8 °F 100% 30.28 in - Calm Calm - N/A   Unknown
8:55 PM 68.0 °F - 68.0 °F 100% 30.28 in 10.0 mi Calm Calm - N/A   Unknown
9:15 PM 66.2 °F - 66.2 °F 100% 30.28 in 10.0 mi Calm Calm - N/A   Unknown
9:35 PM 66.2 °F - 66.2 °F 100% 30.29 in - Calm Calm - N/A   Unknown
9:55 PM 66.2 °F - 66.2 °F 100% 30.28 in 10.0 mi Calm Calm - N/A   Unknown
10:15 PM 64.4 °F - 64.4 °F 100% 30.28 in 10.0 mi Calm Calm - N/A   Unknown
10:35 PM 64.4 °F - 64.4 °F 100% 30.28 in - Calm Calm - N/A   Unknown
10:55 PM 64.4 °F - 64.4 °F 100% 30.29 in 10.0 mi Calm Calm - N/A   Unknown
11:15 PM 64.4 °F - 64.4 °F 100% 30.29 in 10.0 mi Calm Calm - N/A   Unknown
11:35 PM 64.4 °F - 64.4 °F 100% 30.28 in - Calm Calm - N/A   Unknown
11:55 PM 64.4 °F - 64.4 °F 100% 30.28 in 10.0 mi Calm Calm - N/A   Unknown